Location: Spring Creek
(38.2870°N, 100.2160°W)
Time: 09:08:03
(UTC+00:00)

Cosmos 1726 - Pass Details

Date: 08 May 2021
Orbit: 478 x 498 km, 82.5° (Epoch: 21 June)

Event Time Altitude Azimuth Distance (km) Brightness Sun altitude
Rises 09:06:21 0° 344° (NNW) 2,585 6.2 -24.4°
Reaches altitude 10° 09:08:34 10° 336° (NNW) 1,694 5.1 -24.2°
Enters shadow 09:10:00 20° 323° (NW) 1,175 4.1 -24.0°
